Location: Waco, TX
(31.5480°N, 97.1670°W)
Time: 21:29:32
(UTC-05:00)

ISS - Pass Details

Date: 11 August 2018
Orbit: 402 x 409 km, 51.6° (Epoch: 18 August)

Event Time Altitude Azimuth Distance (km) Brightness Sun altitude
Rises 19:57:30 0° 327° (NNW) 2,318 0.9 2.9°
Reaches altitude 10° 19:59:50 10° 342° (NNW) 1,458 -0.5 2.4°
Maximum altitude 20:02:34 24° 38° (NE) 886 -2.3 1.9°
Drops below altitude 10° 20:05:17 10° 95° (E) 1,456 -1.6 1.3°
Sets 20:07:37 0° 110° (ESE) 2,315 -0.7 0.8°
